Авадхара

Georgia     43˚31′01″N   40˚39′00″E
temp.,
°C
wind,
m/s
gust,
m/s
humid.,
%
clouds,
%
prec.,
mm/h
press.,
hPa
HPBL,
m
2 december, wed
wed201:00−4˚ene116899 0.0 102121
04:00−4˚ne1172100 0.0 102221
07:00−4˚ne117798 0.0 102222
10:00−2˚ne117886 0.0 102330
13:00+1˚ssw127537 0.0 1022363
16:00+1˚s117826 0.0 1021181
19:00−3˚ene118259 0.0 102321
22:00−3˚ene118574 0.0 102321
3 december, thu
thu301:00−3˚se019378 0.1 102324
04:00−2˚ene119782 0.2 102422
07:00−2˚ne119579 0.0 102421
10:00−1˚ene119279 0.1 102431
13:00+1˚sw119164 0.2 1023212
16:00+2˚sw118853 0.4 1022188
19:00−2˚ne11912 0.3 102321
22:00−2˚ene118725 0.4 102321
4 december, fri
fri401:00−3˚ne118375 0.0 102321
04:00−3˚ne228263 0.0 102222
07:00−3˚nne228218 0.0 102222
10:00−2˚nne227911 0.0 102232
13:00+2˚s12770 0.0 1020420
16:00+2˚s11730 0.0 1020244
19:00−2˚nne12740 0.0 102121
22:00−3˚nne22730 0.0 102122
5 december, sat
sat501:00−4˚ne22680 0.0 102122
04:00−4˚nne22650 0.0 102122
07:00−4˚nne22620 0.0 102123
10:00−3˚nne33590 0.0 102134
13:00+2˚ne11520 0.0 1020307
16:00+1˚ne01600 0.0 102030
19:00−3˚nne22700 0.0 102121
22:00−4˚nne22680 0.0 102121
6 december, sun
sun601:00−4˚nne11620 0.0 102121
04:00−4˚nne22610 0.0 102221
07:00−5˚nne22530 0.0 102221
10:00−3˚nne22560 0.0 102231
13:00s11530 0.0 1022346
16:00ssw11670 0.0 1021161
19:00−4˚ne11760 0.0 102221
22:00−5˚ne11760 0.0 102221